AV279 Weather Reports


time (UTC)temp
C
wind
direction
speed
KPH
gust
KPH
rain 1hr
cm
rain 24hr
cm
rain mn
cm
humidity
%
barometer
mb
20260507224019 10 0.0 0.0 0.00 0.00 0.00 83 1016.1
20260507223041 10 0.0 0.0 0.00 0.00 0.00 83 1016.3
20260507222020 10 0.0 0.0 0.00 0.00 0.00 82 1016.2
20260507221059 10 0.0 0.0 0.00 0.00 0.00 82 1016.3
20260507220020 10 0.0 1.6 0.00 0.00 0.00 82 1016.3
20260507215030 11 0.0 0.0 0.00 0.00 0.00 82 1016.3
20260507214030 11 0.0 0.0 0.00 0.00 0.00 81 1016.3
20260507213019 11 0.0 0.0 0.00 0.00 0.00 81 1016.5
20260507212030 11 68 1.6 3.2 0.00 0.00 0.00 81 1016.3
20260507211039 11 0.0 0.0 0.00 0.00 0.00 81 1016.4
20260507210020 11 45 1.6 3.2 0.00 0.00 0.00 81 1016.3
20260507205019 11 0.0 1.6 0.00 0.00 0.00 81 1016.4
20260507204020 11 68 1.6 3.2 0.00 0.00 0.00 81 1016.2
20260507203040 11 45 1.6 3.2 0.00 0.00 0.00 80 1016.2
20260507202019 11 0.0 1.6 0.00 0.00 0.00 80 1016.2
20260507201039 11 90 1.6 3.2 0.00 0.00 0.00 80 1016.0
20260507200030 11 113 1.6 3.2 0.00 0.00 0.00 80 1015.9
20260507195019 11 45 1.6 3.2 0.00 0.00 0.00 79 1015.8
20260507194022 11 45 1.6 3.2 0.00 0.00 0.00 79 1015.7
20260507193039 11 45 1.6 1.6 0.00 0.00 0.00 79 1015.6
20260507192030 12 68 1.6 3.2 0.00 0.00 0.00 79 1015.7
20260507191039 12 45 1.6 3.2 0.00 0.00 0.00 78 1015.6
20260507190030 12 23 4.8 6.4 0.00 0.00 0.00 78 1015.5
20260507185030 12 23 1.6 3.2 0.00 0.00 0.00 78 1015.5
20260507184019 12 0.0 1.6 0.00 0.00 0.00 77 1015.4
20260507183019 12 0 1.6 3.2 0.00 0.00 0.00 77 1015.4
20260507182019 12 45 3.2 4.8 0.00 0.00 0.00 77 1015.6
20260507181039 12 0.0 1.6 0.00 0.00 0.00 76 1015.5
20260507180019 12 45 3.2 4.8 0.00 0.00 0.00 76 1015.5
20260507175019 12 68 1.6 4.8 0.00 0.00 0.00 76 1015.5
20260507174019 12 68 1.6 3.2 0.00 0.00 0.00 76 1015.5
20260507173041 12 45 1.6 3.2 0.00 0.00 0.00 77 1015.4
20260507172019 12 23 1.6 4.8 0.00 0.00 0.00 77 1015.5
20260507171051 12 23 4.8 8.0 0.00 0.00 0.00 77 1015.6
20260507170019 12 90 1.6 4.8 0.00 0.00 0.00 77 1015.6
20260507165019 12 0.0 1.6 0.00 0.00 0.00 78 1015.6
20260507164039 12 68 3.2 6.4 0.00 0.00 0.00 78 1015.5
20260507163218 12 23 3.2 6.4 0.00 0.00 0.00 78 1015.6
20260507162219 12 23 3.2 4.8 0.00 0.00 0.00 78 1015.6
20260507161219 12 0 3.2 4.8 0.00 0.00 0.00 78 1015.6
20260507160219 12 45 3.2 6.4 0.00 0.00 0.00 77 1015.7
20260507155250 12 23 6.4 12.9 0.00 0.00 0.00 77 1015.5
20260507154219 12 45 4.8 6.4 0.00 0.00 0.00 77 1015.6
20260507153219 13 0 4.8 8.0 0.00 0.00 0.00 77 1015.6
20260507152219 13 23 6.4 12.9 0.00 0.00 0.00 77 1015.6
20260507151219 13 45 3.2 6.4 0.00 0.00 0.00 77 1015.5
20260507150219 13 338 3.2 4.8 0.00 0.00 0.00 76 1015.6
20260507145219 13 315 1.6 4.8 0.00 0.00 0.00 76 1015.6
20260507144219 13 23 6.4 8.0 0.00 0.00 0.00 75 1015.6
20260507143218 13 23 1.6 9.7 0.00 0.00 0.00 75 1015.7
20260507142218 13 0 6.4 16.1 0.00 0.00 0.00 74 1015.7
20260507141240 13 23 6.4 11.3 0.00 0.00 0.00 74 1015.6
20260507140240 13 45 3.2 4.8 0.00 0.00 0.00 75 1015.7
20260507135219 13 0 6.4 12.9 0.00 0.00 0.00 75 1015.7
20260507134219 13 45 3.2 8.0 0.00 0.00 0.00 75 1015.7
20260507133426 13 23 6.4 12.9 0.00 0.00 0.00 75 1015.7
20260507132419 13 45 8.0 12.9 0.00 0.00 0.00 74 1015.6
20260507131438 14 0 6.4 14.5 0.00 0.00 0.00 74 1015.8
20260507130418 13 23 1.6 4.8 0.00 0.00 0.00 74 1015.8
20260507125419 14 23 3.2 4.8 0.00 0.00 0.00 75 1015.7
20260507124645 13 23 8.0 12.9 0.00 0.00 0.00 75 1015.8
20260507123918 13 45 11.3 14.5 0.00 0.00 0.00 76 1015.8
20260507122918 13 315 4.8 8.0 0.00 0.00 0.00 77 1015.7
20260507121940 13 0 3.2 8.0 0.00 0.00 0.00 76 1015.7
20260507120950 13 180 1.6 3.2 0.00 0.00 0.00 75 1015.6
20260507115950 13 23 1.6 4.8 0.00 0.00 0.00 75 1015.6
20260507114918 14 270 1.6 3.2 0.00 0.00 0.00 74 1015.6
20260507113918 14 338 3.2 6.4 0.00 0.00 0.00 73 1015.5
20260507112940 15 68 1.6 3.2 0.00 0.00 0.00 72 1015.6
20260507111918 15 270 3.2 4.8 0.00 0.00 0.00 70 1015.6
20260507110949 15 0.0 1.6 0.00 0.00 0.00 72 1015.7
20260507105918 14 0.0 1.6 0.00 0.00 0.00 73 1015.6
20260507104931 13 0.0 1.6 0.00 0.00 0.00 73 1015.8
20260507103918 14 338 3.2 6.4 0.00 0.00 0.00 73 1015.8
20260507102929 14 23 3.2 4.8 0.00 0.00 0.00 75 1015.9
20260507101929 13 293 3.2 4.8 0.00 0.00 0.00 75 1015.8
20260507100918 13 135 3.2 4.8 0.00 0.00 0.00 77 1015.8
20260507095940 13 315 1.6 3.2 0.00 0.00 0.00 78 1015.6
20260507094920 13 23 3.2 6.4 0.00 0.00 0.00 77 1015.6
20260507093929 13 0 1.6 4.8 0.00 0.00 0.00 78 1015.6
20260507092929 13 0.0 1.6 0.00 0.00 0.00 79 1015.5
20260507091918 13 0.0 1.6 0.00 0.00 0.00 79 1015.4
20260507090941 12 0.0 1.6 0.00 0.00 0.00 81 1015.3
20260507085918 12 0.0 1.6 0.00 0.00 0.00 80 1015.3
20260507084920 12 338 1.6 3.2 0.00 0.00 0.00 80 1015.4
20260507084010 12 0.0 1.6 0.00 0.00 0.00 81 1015.4
20260507082940 12 0 1.6 3.2 0.00 0.00 0.00 81 1015.3
20260507081920 12 113 1.6 4.8 0.00 0.00 0.00 81 1015.0
20260507080920 11 0.0 1.6 0.00 0.00 0.00 81 1015.1
20260507075918 12 68 4.8 6.4 0.00 0.00 0.00 81 1015.0
20260507074920 11 0 4.8 6.4 0.00 0.00 0.00 82 1015.1
20260507073920 11 315 3.2 4.8 0.00 0.00 0.00 82 1015.0
20260507072931 11 45 4.8 6.4 0.00 0.00 0.00 82 1015.0
20260507071920 11 338 3.2 6.4 0.00 0.00 0.00 82 1014.9
20260507070929 11 23 1.6 3.2 0.00 0.00 0.00 83 1014.8
20260507065931 11 315 1.6 4.8 0.00 0.00 0.00 83 1014.8
20260507064920 11 0 1.6 4.8 0.00 0.00 0.00 84 1014.6
20260507063920 10 23 1.6 3.2 0.00 0.00 0.00 86 1014.6
20260507063011 10 45 3.2 4.8 0.00 0.00 0.00 87 1014.7
20260507061931 10 0.0 0.0 0.00 0.00 0.00 88 1014.7
20260507060920 10 0.0 0.0 0.00 0.00 0.00 88 1014.7
20260507055930 10 0.0 0.0 0.00 0.00 0.00 88 1014.7
20260507054920 10 0.0 0.0 0.00 0.00 0.00 88 1014.5
20260507053930 10 0.0 0.0 0.00 0.00 0.00 88 1014.3
20260507052920 10 0.0 0.0 0.00 0.00 0.00 88 1014.3
20260507052225 10 0.0 0.0 0.00 0.00 0.00 88 1014.2
20260507051520 10 0.0 1.6 0.00 0.00 0.00 88 1014.2
20260507050530 10 225 1.6 1.6 0.00 0.00 0.00 89 1014.1
20260507045520 10 0.0 0.0 0.00 0.00 0.00 89 1013.8
20260507044530 10 0.0 0.0 0.00 0.00 0.00 89 1013.8
20260507043530 10 0.0 0.0 0.00 0.00 0.00 89 1013.7
20260507042520 10 0.0 0.0 0.00 0.00 0.00 89 1013.8
20260507041519 10 0.0 0.0 0.00 0.00 0.00 89 1013.7
20260507040540 10 0.0 0.0 0.00 0.00 0.00 89 1013.7
20260507035520 9 0.0 0.0 0.00 0.00 0.00 89 1013.7
20260507034530 9 0.0 0.0 0.00 0.00 0.00 88 1013.6
20260507033541 9 0.0 0.0 0.00 0.00 0.00 88 1013.4
20260507032539 9 0.0 0.0 0.00 0.00 0.00 88 1013.5
20260507031540 9 0.0 0.0 0.00 0.00 0.00 88 1013.5
20260507030520 9 0.0 0.0 0.00 0.00 0.00 88 1013.5
20260507025530 9 0.0 0.0 0.00 0.00 0.00 87 1013.4
20260507024530 9 0.0 1.6 0.00 0.00 0.00 87 1013.4
20260507023530 9 0.0 1.6 0.00 0.00 0.00 87 1013.4
20260507022519 9 0.0 0.0 0.00 0.00 0.00 87 1013.4
20260507021519 10 338 1.6 3.2 0.00 0.00 0.00 87 1013.3
20260507020530 10 0.0 0.0 0.00 0.00 0.00 87 1013.3
20260507015550 10 0.0 0.0 0.00 0.00 0.00 86 1013.2
20260507014519 10 0 1.6 3.2 0.00 0.00 0.00 86 1013.2
20260507013530 10 0.0 0.0 0.00 0.00 0.00 86 1013.2
20260507012519 10 0.0 1.6 0.00 0.00 0.00 86 1013.3
20260507011550 10 0.0 0.0 0.00 0.00 0.00 85 1013.2
20260507010530 10 0.0 1.6 0.00 0.00 0.00 85 1013.2
20260507005550 10 338 3.2 6.4 0.00 0.00 0.00 85 1013.2
20260507004519 10 0 3.2 6.4 0.00 0.00 0.00 85 1013.2
20260507003519 10 23 3.2 4.8 0.00 0.00 0.00 85 1013.3
20260507002540 10 315 1.6 4.8 0.00 0.00 0.00 84 1013.2
20260507001519 10 23 4.8 14.5 0.00 0.00 0.00 84 1013.2
20260507000539 10 45 3.2 8.0 0.00 0.00 0.00 84 1013.2
20260506235520 10 45 4.8 9.7 0.00 0.00 0.00 84 1013.2
20260506234520 10 0 8.0 14.5 0.00 0.00 0.00 84 1013.0
20260506233520 10 23 6.4 12.9 0.00 0.00 0.00 84 1013.1
20260506232520 11 23 4.8 9.7 0.00 0.00 0.00 84 1013.0
20260506231550 11 45 3.2 6.4 0.00 0.00 0.00 84 1013.1
20260506230519 10 0 6.4 14.5 0.00 0.00 0.00 84 1013.0
20260506225520 10 338 4.8 12.9 0.00 0.00 0.00 84 1012.9